Content
SEND FEEDBACK

Daily
Averages
Monthly
Summary
United States of America

AGAT, GUAM


Home > North America > United States > Guam
Elevation: 364 feet     Latitude: 13 33N     Longitude: 144 50E

WEATHER
 
SELECT A DAY
Number of Records: 206,877;   Date Range: 1/1/95 - 4/17/14
 
SHARE

PRINT THIS DATA

[ ← Previous Day ]
WEATHER ALMANAC - MAY 1, 2013
[ Next Day → ]
[ °C ]   °F
Weather ElementAverageHighLow
Temperature84.5 °F90 °F (12:54 pm)78.1 °F (9:54 pm)
Dewpoint74.7 °F75.9 °F (2:54 am)73.4 °F (11:30 am)
Humidity73.2 %90 % (9:54 pm)59 % (11:30 am)
Barometer29.81 in29.88 in (9:44 pm)29.74 in (3:54 pm)
Wind Speed11.5 mph18.4 mph (12:11 pm)
Wind Gust28.8 mph (12:11 pm)
Weather ElementAverage
Visibility9.3 mi
Wind DirectionE (95 °)

Weather ElementTotal
Precipitation0.45 in
Cooling Degree Days19.1 (Base 65)
Growing Degree Days34.1 (Base 50)
Averaged from 30 records on May 1, 2013
WEATHER CONDITIONS BREAKOUT
WIND DIRECTION BREAKOUT
WEATHER BY HOUR - MAY 1, 2013
[ °C ]   °F
Local TimeTemperatureDewpointHumidityBarometerVisibilityWind DirectionWind SpeedGust SpeedPrecipitationEventsConditions
1:54 AM82.9 °F75.0 °F77 %29.82 in10.0 miEast (80°)8.1 mphPartly Cloudy
2:54 AM82.0 °F75.9 °F82 %29.80 in10.0 miEast (80°)9.2 mph0.01 inRainLight Rain
3:54 AM82.0 °F75.0 °F79 %29.80 in10.0 miEast (100°)6.9 mph0.00 inScattered Clouds
4:54 AM82.0 °F75.0 °F79 %29.80 in10.0 miEast (90°)8.1 mphClear
5:54 AM82.0 °F75.9 °F82 %29.81 in10.0 miEast (90°)10.4 mphScattered Clouds
6:54 AM82.9 °F75.0 °F77 %29.81 in10.0 miEast (90°)12.7 mphScattered Clouds
7:54 AM84.0 °F75.0 °F74 %29.83 in10.0 miEast (90°)12.7 mphScattered Clouds
8:54 AM86.0 °F75.0 °F70 %29.83 in10.0 miEast (80°)15.0 mphPartly Cloudy
9:54 AM88.0 °F73.9 °F63 %29.82 in10.0 miEast (80°)17.3 mph21.9 mphPartly Cloudy
10:54 AM89.1 °F73.9 °F61 %29.81 in10.0 miEast (90°)16.1 mphScattered Clouds
11:30 AM89.6 °F73.4 °F59 %29.83 in10.0 miEast (80°)16.1 mphMostly Cloudy
11:54 AM89.1 °F73.9 °F61 %29.80 in10.0 miEast (90°)13.8 mph20.7 mphMostly Cloudy
12:11 PM87.8 °F73.4 °F62 %29.82 in10.0 miEast (90°)18.4 mph28.8 mphMostly Cloudy
12:54 PM90.0 °F73.9 °F59 %29.78 in10.0 miEast (80°)17.3 mph24.2 mphScattered Clouds
1:54 PM89.1 °F73.9 °F61 %29.77 in10.0 miESE (110°)13.8 mph23.0 mphScattered Clouds
2:09 PM87.8 °F75.2 °F66 %29.79 in10.0 miEast (90°)12.7 mph21.9 mphMostly Cloudy
2:38 PM89.6 °F73.4 °F59 %29.78 in10.0 miEast (100°)13.8 mph23.0 mphScattered Clouds
2:54 PM89.1 °F75.0 °F63 %29.75 in10.0 miEast (100°)12.7 mph20.7 mphScattered Clouds
3:54 PM89.1 °F75.0 °F63 %29.74 in10.0 miEast (100°)16.1 mph21.9 mphScattered Clouds
4:54 PM87.1 °F73.9 °F65 %29.75 in10.0 miEast (90°)16.1 mph20.7 mphPartly Cloudy
5:54 PM84.9 °F73.9 °F69 %29.77 in10.0 miEast (100°)11.5 mph18.4 mphScattered Clouds
6:54 PM84.9 °F75.0 °F72 %29.80 in10.0 miEast (100°)8.1 mphScattered Clouds
7:54 PM82.9 °F75.9 °F79 %29.82 in10.0 miESE (120°)8.1 mphScattered Clouds
8:54 PM79.0 °F75.0 °F88 %29.84 in3.0 miSE (130°)8.1 mph0.04 inRainHeavy Rain
9:44 PM78.8 °F75.2 °F89 %29.88 in4.0 miESE (120°)11.5 mph18.4 mph0.15 inRainRain
9:54 PM78.1 °F75.0 °F90 %29.86 in4.0 miESE (120°)8.1 mph16.1 mph0.17 inRainLight Rain
10:54 PM79.0 °F75.0 °F88 %29.83 in10.0 miEast (100°)5.8 mph0.06 inRainLight Rain
11:07 PM78.8 °F75.2 °F89 %29.85 in10.0 miEast (90°)5.8 mph0.00 inPartly Cloudy
11:50 PM80.6 °F75.2 °F84 %29.84 in10.0 miEast (90°)4.6 mph0.01 inMostly Cloudy
11:54 PM80.1 °F75.9 °F87 %29.82 in8.0 miEast (80°)4.6 mph0.01 inRainLight Rain
Hourly data recorded from PGUM, located 4.46 miles away from Agat, Guam







STORIES FROM OUR PARTNERS